Regional Weather Roundup
Issued by NWS

Home | Current Version | Previous Version | Graphics & Text | Print | Product List | Glossary On
Versions: 1 2 3 4 5 6 7 8 9 10 11 12 13 14 15 16 17 18 19 20 21 22 23 24 25 26 27 28 29 30 31 32 33 34 35 36 37 38 39 40 41 42 43 44 45 46 47 48 49 50
000
ASUS43 KBIS 201220
RWRND

NORTH DAKOTA REGIONAL WEATHER ROUNDUP
NATIONAL WEATHER SERVICE BISMARCK ND
700 AM CDT WED AUG 20 2014

NOTE: "FAIR" INDICATES FEW OR NO CLOUDS BELOW 12,000 FEET WITH NO
SIGNIFICANT WEATHER AND/OR OBSTRUCTIONS TO VISIBILITY.


NDZ001>003-009>011-017-201300-
NORTHWEST NORTH DAKOTA

CITY           SKY/WX    TMP DP  RH WIND       PRES   REMARKS
WILLISTON      MOCLDY    71  60  68 SE6       29.62R
6HR MIN TEMP:  66; 6HR MAX TEMP:  76; 6HR PCP: TRACE;

MINOT          PTCLDY    63  60  90 SE5       29.67R
MINOT AFB      PTCLDY    63  63  99 SE8       29.66R
$$

NDZ018>021-031>035-040>046-201300-
SOUTHWEST NORTH DAKOTA

CITY           SKY/WX    TMP DP  RH WIND       PRES   REMARKS
BISMARCK       CLEAR     62  60  93 E9        29.72R
6HR MIN TEMP:  62; 6HR MAX TEMP:  70;

DICKINSON      MOCLDY    65  61  87 S10       29.66S
GARRISON         N/A     64  62  93 SE5       29.68S
6HR MIN TEMP:  63; 6HR MAX TEMP:  68;

HETTINGER ARPT CLOUDY    68  63  84 SE7       29.70S
$$

NDZ004>008-012>016-024-026-027-054-201300-
NORTHEAST NORTH DAKOTA

CITY           SKY/WX    TMP DP  RH WIND       PRES   REMARKS
GRAND FORKS    PTCLDY    63  61  93 SE6       29.77R
GRND FRKS AFB  PTCLDY    61  61 100 SE5       29.78R
DEVILS LAKE    PTCLDY    68  61  77 SE7       29.74S
$$

NDZ022-023-025-028>030-036>039-047>053-201300-
SOUTHEAST NORTH DAKOTA

CITY           SKY/WX    TMP DP  RH WIND       PRES   REMARKS
FARGO          CLEAR     65  62  90 SE7       29.78R
6HR MIN TEMP:  64; 6HR MAX TEMP:  68;

JAMESTOWN      CLEAR     64  61  90 SE6       29.75R
$$



USA.gov is the U.S. government's official web portal to all federal, state and local government web resources and services.